EDT,Max TemperatureF,Mean TemperatureF,Min TemperatureF,Max Dew PointF,MeanDew PointF,Min DewpointF,Max Humidity, Mean Humidity, Min Humidity, Max Sea Level PressureIn, Mean Sea Level PressureIn, Min Sea Level PressureIn, Max VisibilityMiles, Mean VisibilityMiles, Min VisibilityMiles, Max Wind SpeedMPH, Mean Wind SpeedMPH, Max Gust SpeedMPH,PrecipitationIn, CloudCover, Events, WindDirDegrees
2013-4-1,41,32,23,37,22,9,93,74,43,29.95,29.80,29.61,10,8,1,22,13,30,0.04,7,,281
2013-4-2,28,22,17,19,13,9,93,64,43,30.11,30.03,29.95,10,9,1,22,13,30,0.00,7,,286
2013-4-3,28,24,19,18,14,10,74,63,51,30.37,30.23,30.11,10,10,3,22,11,33,0.00,5,,298
2013-4-4,48,32,15,16,11,3,93,50,18,30.32,30.15,29.93,10,10,10,14,5,21,0.00,0,,198
2013-4-5,39,32,26,27,18,9,69,52,30,30.13,29.98,29.87,10,10,10,20,9,24,0.00,4,,313
2013-4-6,48,34,19,18,14,9,86,48,20,30.26,30.15,30.00,10,10,10,15,7,20,0.00,2,,155
2013-4-7,62,50,37,43,31,16,87,52,31,30.02,29.89,29.80,10,10,3,22,14,38,0.00,2,,230
2013-4-8,66,49,32,46,37,28,93,64,37,30.07,29.96,29.84,10,9,2,17,6,25,0.00,4,,190
2013-4-9,66,52,39,48,42,37,93,69,42,30.12,30.00,29.85,10,9,2,22,11,30,0.03,6,,251
2013-4-10,60,50,39,59,46,37,100,94,87,29.95,29.91,29.81,10,2,0,18,5,37,1.00,8,Thunderstorm,14
2013-4-11,41,37,33,39,34,30,100,89,81,29.98,29.88,29.74,10,8,0,17,11,24,0.01,8,,73
2013-4-12,50,42,35,48,39,30,100,90,81,29.79,29.64,29.50,10,8,2,18,11,24,0.18,8,Thunderstorm,206
2013-4-13,39,36,33,32,30,27,87,78,65,29.95,29.85,29.78,10,9,2,18,11,28,0.06,8,,249
2013-4-14,44,38,32,30,29,27,87,69,53,30.11,30.05,29.95,10,10,7,14,7,21,0.00,7,,233
2013-4-15,68,54,41,46,39,30,67,55,40,30.10,30.06,30.03,10,10,10,20,10,30,0.00,5,,175
2013-4-16,62,54,46,57,48,41,94,83,63,30.22,30.10,30.04,10,9,0,18,12,30,0.19,7,Thunderstorm,219
2013-4-17,59,48,37,41,33,28,87,56,36,30.31,30.24,30.12,10,10,8,12,7,,0.00,2,,40
2013-4-18,77,65,53,57,50,32,77,60,44,30.14,29.93,29.76,10,10,9,23,13,34,0.00,3,,172
2013-4-19,66,52,37,57,44,27,93,75,64,29.78,29.64,29.45,10,10,5,28,13,44,0.23,6,,221
2013-4-20,37,32,28,28,22,16,93,68,51,30.37,30.04,29.77,10,9,2,24,15,36,0.00,7,,270
2013-4-21,46,34,23,25,20,16,80,59,34,30.60,30.50,30.37,10,10,8,12,5,16,0.00,1,,22
2013-4-22,57,46,35,28,22,18,56,41,29,30.49,30.40,30.30,10,10,10,16,7,23,0.00,0,,155
2013-4-23,66,50,35,34,29,21,70,45,26,30.31,30.15,29.95,10,10,10,16,9,21,0.00,0,,175
2013-4-24,57,45,33,52,39,28,94,76,47,30.07,29.85,29.68,10,8,2,28,12,33,0.19,7,,206
2013-4-25,51,42,32,34,30,23,87,72,37,30.31,30.18,30.08,10,10,7,21,10,26,0.02,5,,241
2013-4-26,51,40,28,37,28,19,100,63,35,30.47,30.40,30.32,10,8,0,12,4,16,0.01,4,,301
2013-4-27,66,50,33,34,28,21,70,40,24,30.40,30.32,30.21,10,10,10,9,4,,0.00,0,,141
2013-4-28,62,54,46,46,39,28,93,62,33,30.20,30.09,29.98,10,10,9,24,10,37,0.01,4,,160
2013-4-29,55,50,46,52,46,43,93,84,77,30.05,30.00,29.96,10,10,9,17,11,23,0.00,8,,169
2013-4-30,66,58,51,50,49,46,88,71,52,30.23,30.14,30.05,10,10,6,18,10,26,0.00,5,,170